TimeEEST,TemperatureF,Dew PointF,Humidity,Sea Level PressureIn,VisibilityMPH,Wind Direction,Wind SpeedMPH,Gust SpeedMPH,PrecipitationIn,Events,Conditions,WindDirDegrees,DateUTC
12:20 AM,57.2,33.8,41,30.01,-9999.0,Variable,2.3,-,N/A,,Clear,0,2012-10-18 21:20:00
12:50 AM,55.4,35.6,47,30.01,-9999.0,Variable,2.3,-,N/A,,Clear,0,2012-10-18 21:50:00
1:20 AM,53.6,37.4,54,30.04,-9999.0,WSW,4.6,-,N/A,,Clear,240,2012-10-18 22:20:00
1:50 AM,51.8,32.0,47,30.04,-9999.0,South,4.6,-,N/A,,Clear,180,2012-10-18 22:50:00
2:20 AM,53.6,33.8,47,30.04,-9999.0,South,4.6,-,N/A,,Clear,180,2012-10-18 23:20:00
3:20 AM,53.6,33.8,47,30.04,-9999.0,Variable,2.3,-,N/A,,Clear,0,2012-10-19 00:20:00
3:50 AM,51.8,33.8,50,30.04,-9999.0,South,3.5,-,N/A,,Clear,190,2012-10-19 00:50:00
4:20 AM,50.0,35.6,58,30.04,-9999.0,Variable,1.2,-,N/A,,Clear,0,2012-10-19 01:20:00
4:50 AM,50.0,33.8,54,30.04,-9999.0,Calm,Calm,-,N/A,,Clear,0,2012-10-19 01:50:00
5:20 AM,50.0,33.8,54,30.04,-9999.0,Calm,Calm,-,N/A,,Clear,0,2012-10-19 02:20:00
5:50 AM,50.0,35.6,58,30.06,-9999.0,Calm,Calm,-,N/A,,Clear,0,2012-10-19 02:50:00
6:20 AM,48.2,35.6,62,30.06,-9999.0,Calm,Calm,-,N/A,,Clear,0,2012-10-19 03:20:00
6:50 AM,48.2,33.8,58,30.06,-9999.0,North,1.2,-,N/A,,Clear,350,2012-10-19 03:50:00
7:20 AM,50.0,37.4,62,30.06,-9999.0,North,3.5,-,N/A,,Clear,10,2012-10-19 04:20:00
7:50 AM,53.6,37.4,54,30.06,6.2,NNE,3.5,-,N/A,,Partly Cloudy,20,2012-10-19 04:50:00
8:20 AM,57.2,33.8,41,30.09,6.2,Variable,1.2,-,N/A,,Partly Cloudy,0,2012-10-19 05:20:00
8:50 AM,59.0,32.0,36,30.09,6.2,Calm,Calm,-,N/A,,Partly Cloudy,0,2012-10-19 05:50:00
9:20 AM,64.4,32.0,30,30.09,6.2,Variable,1.2,-,N/A,,Partly Cloudy,0,2012-10-19 06:20:00
9:50 AM,66.2,32.0,28,30.09,6.2,SW,3.5,-,N/A,,Partly Cloudy,230,2012-10-19 06:50:00
10:20 AM,68.0,30.2,24,30.06,6.2,WSW,4.6,-,N/A,,Partly Cloudy,240,2012-10-19 07:20:00
10:50 AM,71.6,32.0,23,30.06,6.2,WSW,3.5,-,N/A,,Partly Cloudy,240,2012-10-19 07:50:00
11:20 AM,75.2,33.8,22,30.06,6.2,Variable,2.3,-,N/A,,Partly Cloudy,0,2012-10-19 08:20:00
11:50 AM,78.8,35.6,21,30.04,6.2,Variable,2.3,-,N/A,,Partly Cloudy,0,2012-10-19 08:50:00
12:20 PM,82.4,35.6,19,30.04,6.2,Variable,2.3,-,N/A,,Partly Cloudy,0,2012-10-19 09:20:00
12:50 PM,82.4,33.8,17,30.01,6.2,NE,6.9,-,N/A,,Scattered Clouds,50,2012-10-19 09:50:00
1:20 PM,86.0,33.8,15,30.01,6.2,Variable,2.3,-,N/A,,Partly Cloudy,0,2012-10-19 10:20:00
1:50 PM,84.2,33.8,16,30.01,6.2,NW,4.6,-,N/A,,Partly Cloudy,320,2012-10-19 10:50:00
2:20 PM,84.2,30.2,14,30.01,6.2,Variable,3.5,-,N/A,,Partly Cloudy,0,2012-10-19 11:20:00
2:50 PM,84.2,30.2,14,30.01,6.2,ENE,5.8,-,N/A,,Partly Cloudy,60,2012-10-19 11:50:00
3:20 PM,84.2,30.2,14,30.01,6.2,NE,5.8,-,N/A,,Scattered Clouds,40,2012-10-19 12:20:00
3:50 PM,84.2,28.4,13,29.98,6.2,North,5.8,-,N/A,,Scattered Clouds,360,2012-10-19 12:50:00
4:20 PM,84.2,30.2,14,29.98,6.2,North,4.6,-,N/A,,Scattered Clouds,350,2012-10-19 13:20:00
4:50 PM,82.4,32.0,16,29.98,6.2,North,5.8,-,N/A,,Scattered Clouds,10,2012-10-19 13:50:00
5:20 PM,77.0,33.8,21,29.98,6.2,NNE,6.9,-,N/A,,Scattered Clouds,30,2012-10-19 14:20:00
5:50 PM,73.4,33.8,23,29.98,6.2,ENE,4.6,-,N/A,,Scattered Clouds,60,2012-10-19 14:50:00
6:20 PM,71.6,33.8,25,30.01,6.2,NE,4.6,-,N/A,,Scattered Clouds,40,2012-10-19 15:20:00
6:50 PM,68.0,35.6,30,30.01,6.2,NNE,5.8,-,N/A,,Partly Cloudy,20,2012-10-19 15:50:00
7:20 PM,66.2,37.4,35,30.01,6.2,NNE,5.8,-,N/A,,Partly Cloudy,20,2012-10-19 16:20:00
7:50 PM,69.8,35.6,28,30.01,6.2,NE,4.6,-,N/A,,Partly Cloudy,50,2012-10-19 16:50:00
8:20 PM,66.2,35.6,32,30.01,6.2,NE,5.8,-,N/A,,Partly Cloudy,50,2012-10-19 17:20:00
8:50 PM,62.6,35.6,37,30.04,6.2,ENE,5.8,-,N/A,,Partly Cloudy,60,2012-10-19 17:50:00
9:20 PM,66.2,35.6,32,30.04,6.2,NE,9.2,-,N/A,,Partly Cloudy,40,2012-10-19 18:20:00
9:50 PM,62.6,37.4,39,30.04,6.2,NE,6.9,-,N/A,,Partly Cloudy,40,2012-10-19 18:50:00
10:20 PM,62.6,35.6,37,30.04,6.2,NNE,8.1,-,N/A,,Partly Cloudy,30,2012-10-19 19:20:00
10:50 PM,60.8,35.6,39,30.04,-9999.0,NNE,8.1,-,N/A,,Clear,30,2012-10-19 19:50:00
11:20 PM,62.6,35.6,37,30.04,-9999.0,NE,6.9,-,N/A,,Clear,40,2012-10-19 20:20:00
11:50 PM,60.8,35.6,39,30.04,-9999.0,NNE,6.9,-,N/A,,Clear,30,2012-10-19 20:50:00